Location: Newark
(45.4422°N, 16.2769°E)
Time: 03:03:44
(UTC+00:00)

Altair - Visible Passes

Search period start: 13 December 2019 00:00
Search period end: 23 December 2019 00:00
Orbit: 1502 x 1682 km, 47.2° (Epoch: 12 December)

Date Brightness Start Highest point End Pass type
(mag) Time Alt. Az. Time Alt. Az. Time Alt. Az.
13 Dec 9.0 02:34:20 17° S 02:34:20 17° S 02:36:29 10° SSE visible
13 Dec 8.2 17:38:06 10° S 17:46:10 31° SE 17:46:45 30° SE visible
13 Dec 8.6 19:40:19 10° SW 19:44:47 32° SW 19:44:47 32° SW visible
14 Dec 9.4 02:11:02 12° SSE 02:11:02 12° SSE 02:11:37 10° SSE visible
14 Dec 8.3 17:13:17 10° S 17:21:06 28° SE 17:23:17 26° ESE visible
14 Dec 8.1 19:15:10 10° SW 19:21:20 44° SW 19:21:20 44° SW visible
15 Dec 8.5 16:48:31 10° S 16:56:03 26° SE 16:59:48 20° E visible
15 Dec 7.7 18:50:03 10° SW 18:57:50 57° SSW 18:57:50 57° SSW visible
15 Dec 9.5 20:54:46 10° W 20:55:53 14° W 20:55:53 14° W visible
16 Dec 8.6 16:23:47 10° S 16:31:01 24° SE 16:36:16 15° E visible
16 Dec 7.5 18:24:56 10° SW 18:34:18 64° SSE 18:34:18 64° SSE visible
16 Dec 9.1 20:29:32 10° W 20:32:20 22° W 20:32:20 22° W visible
17 Dec 8.8 15:59:06 10° S 16:05:58 22° SE 16:12:40 10° E visible
17 Dec 7.5 17:59:49 10° SW 18:09:20 61° SSE 18:10:43 56° ESE visible
17 Dec 8.7 20:04:17 10° W 20:08:46 32° W 20:08:46 32° W visible
18 Dec 8.9 15:34:30 10° S 15:40:56 20° SE 15:47:13 10° E visible
18 Dec 7.6 17:34:43 10° SW 17:44:13 57° SSE 17:47:07 43° E visible
18 Dec 8.2 19:39:03 10° W 19:45:09 45° W 19:45:09 45° W visible
19 Dec 7.7 17:09:39 10° SW 17:19:05 54° SE 17:23:28 32° E visible
19 Dec 7.7 19:13:50 10° WSW 19:21:30 61° W 19:21:30 61° W visible
19 Dec 9.7 21:19:06 10° WNW 21:19:32 12° WNW 21:19:32 12° WNW visible
20 Dec 7.9 16:44:36 10° SW 16:53:58 51° SE 16:59:48 24° E visible
20 Dec 7.4 18:48:36 10° WSW 18:57:49 82° W 18:57:49 82° W visible
20 Dec 9.4 20:53:52 10° W 20:55:51 18° WNW 20:55:51 18° WNW visible
21 Dec 8.0 16:19:34 10° SSW 16:28:52 48° SE 16:36:06 17° ENE visible
21 Dec 7.3 18:23:22 10° WSW 18:33:11 90° SSE 18:34:07 77° ENE visible
21 Dec 9.0 20:28:39 10° W 20:32:09 26° WNW 20:32:09 26° WNW visible
22 Dec 8.1 15:54:34 10° SSW 16:03:45 45° SE 16:12:22 11° ENE visible
22 Dec 7.4 17:58:09 10° WSW 18:08:00 87° SSE 18:10:23 58° ENE visible
22 Dec 8.6 20:03:25 10° W 20:08:25 36° WNW 20:08:25 36° WNW visible
